This is the latest recevied weather packets stored in our database for station/object XE1E-15. If no packets are shown the sender has not sent any weather packets the latest 10 day(s).
| Time | Temp. | Humidity | Pressure | Rain* | Wind** | Luminosity | Snow |
|---|---|---|---|---|---|---|---|
| 1777734947 | 28.89° C | 31% | 1023.7 hPa | - | - | - | - |
| 1777733987 | 28.33° C | 31% | 1023.7 hPa | - | - | - | - |
| 1777733027 | 27.22° C | 33% | 1023.6 hPa | - | - | - | - |
| 1777732067 | 27.78° C | 33% | 1023.7 hPa | - | - | - | - |
| 1777731107 | 26.11° C | 35% | 1023.5 hPa | - | - | - | - |
| 1777730147 | 26.11° C | 35% | 1023.4 hPa | - | - | - | - |
| 1777728707 | 26.11° C | 35% | 1023.3 hPa | - | - | - | - |
| 1777727814 | 25.56° C | 36% | 1023.1 hPa | - | - | - | - |
| 1777727747 | 25.56° C | 36% | 1023.1 hPa | - | - | - | - |
| 1777726787 | 24.44° C | 36% | 1022.9 hPa | - | - | - | - |
| 1777725827 | 25° C | 38% | 1022.6 hPa | - | - | - | - |
| 1777724867 | 24.44° C | 38% | 1022.3 hPa | - | - | - | - |
| 1777723907 | 25° C | 41% | 1022.3 hPa | - | - | - | - |
| 1777722980 | 24.44° C | 41% | 1022.1 hPa | - | - | - | - |
| 1777722947 | 24.44° C | 41% | 1022.1 hPa | - | - | - | - |
| 1777721987 | 24.44° C | 40% | 1021.8 hPa | - | - | - | - |
| 1777721026 | 25° C | 39% | 1021.7 hPa | - | - | - | - |
| 1777720066 | 25° C | 38% | 1021.6 hPa | - | - | - | - |
| 1777719106 | 25.56° C | 37% | 1021.5 hPa | - | - | - | - |
| 1777718146 | 25° C | 38% | 1021.3 hPa | - | - | - | - |
| 1777717218 | 25.56° C | 36% | 1021.1 hPa | - | - | - | - |
| 1777717186 | 25.56° C | 36% | 1021.1 hPa | - | - | - | - |
| 1777716226 | 25° C | 38% | 1021 hPa | - | - | - | - |
| 1777715266 | 25° C | 39% | 1021 hPa | - | - | - | - |
| 1777714305 | 25.56° C | 39% | 1020.9 hPa | - | - | - | - |
* Rain since midnight (hover to see other rain measurements)
** Current wind speed in m/s (hover to see current wind gust speed)